Location: Maignaut
(43.8886°N, 0.4051°E)
Time: 02:48:04
(UTC+00:00)

H-2A R/B - Pass Details

Date: 17 January 2021
Orbit: 576 x 655 km, 98.5° (Epoch: 04 March)

Event Time Altitude Azimuth Distance (km) Brightness Sun altitude
Rises 17:40:34 0° 10° (N) 2,983 5.3 -9.3°
Reaches altitude 10° 17:42:49 10° 8° (N) 2,061 4.5 -9.7°
Maximum altitude 17:47:16 65° 288° (WNW) 705 2.6 -10.4°
Drops below altitude 10° 17:51:36 10° 206° (SSW) 2,006 5.3 -11.2°
Sets 17:53:47 0° 203° (SSW) 2,896 6.1 -11.5°
